Back to catalog

STARLINK-30099

AliveCommunicationsVLEO
NORAD 56304·PAYLOAD·🇺🇸 United States

Launched Apr 19, 2023 from Cape Canaveral Space Force Station

Loading…

Next Passes (next 24 hours)

TLE

FreshSource: CelesTrak SupGP

Epoch: Sep 14, 2026, 14:22 UTC

1 56304C 23056U   26257.59909722 -.00024205  00000+0 -87677-3 0  2578
2 56304  42.9996 221.7620 0001348 260.3609  99.8816 15.27587282    10

Track STARLINK-30099 in real time with AllMySat

Download on the App Store